Location: Newark
(49.0697°N, 1.0692°W)
Time: 22:54:21
(UTC+00:00)

N. Korean satellite - Visible Passes

Search period start: 22 January 2020 00:00
Search period end: 01 February 2020 00:00
Orbit: 454 x 507 km, 97.2° (Epoch: 22 January)

Date Brightness Start Highest point End Pass type
(mag) Time Alt. Az. Time Alt. Az. Time Alt. Az.
22 Jan 8.4 05:27:12 10° NNE 05:30:25 32° E 05:33:40 10° SSE visible
22 Jan 7.8 07:00:57 10° NNW 07:03:40 21° WNW 07:06:23 10° WSW visible
22 Jan 8.9 17:40:05 10° SSW 17:43:01 27° W 17:45:59 10° NW visible
23 Jan 9.5 05:02:20 10° NE 05:04:46 17° E 05:07:13 10° SE visible
23 Jan 7.0 06:35:01 10° N 06:38:19 38° WNW 06:41:39 10° SW visible
24 Jan 6.4 06:09:19 10° N 06:12:53 77° WNW 06:16:29 10° SSW visible
25 Jan 7.4 05:43:52 10° NNE 05:47:22 51° E 05:50:53 10° S visible
25 Jan 9.7 17:57:38 10° SW 18:00:00 17° W 18:02:23 10° NW visible
26 Jan 8.8 05:18:42 10° NE 05:21:46 26° E 05:24:51 10° SSE visible
26 Jan 7.6 06:52:06 10° N 06:55:06 25° WNW 06:58:07 10° SW visible
26 Jan 8.5 17:31:12 10° SSW 17:34:19 33° W 17:37:29 10° NNW visible
27 Jan 9.8 04:54:03 10° NE 04:56:04 14° E 04:58:07 10° SE visible
27 Jan 6.7 06:26:16 10° N 06:29:43 48° WNW 06:33:13 10° SSW visible
28 Jan 6.6 06:00:38 10° NNE 06:04:15 84° ESE 06:07:54 10° SSW visible
28 Jan 10.1 18:15:49 10° WSW 18:17:01 11° W 18:18:13 10° WNW visible
29 Jan 7.9 05:35:16 10° NNE 05:38:42 41° E 05:42:10 10° S visible
29 Jan 9.4 17:48:33 10° SW 17:51:16 22° W 17:54:01 10° NW visible
30 Jan 9.2 05:10:12 10° NE 05:13:05 22° E 05:15:58 10° SE visible
30 Jan 7.3 06:43:17 10° N 06:46:31 31° WNW 06:49:45 10° SW visible
31 Jan 10.1 04:45:56 10° ENE 04:47:21 12° E 04:48:46 10° ESE visible
31 Jan 6.5 06:17:31 10° N 06:21:06 61° WNW 06:24:43 10° SSW visible
